User: anonymous   Login
Location: Unspecified
(0.0000°N, 0.0000°E)
Time: 04:48:11
(UTC+00:00)
Language:

Tiros 8 - Orbit

View from above orbital plane
View from above orbital plane
View from above satellite
View from above satellite

Ground track
Ground track

The orbit data is extracted from the following two-line orbital elements,

1 00716U 63054A   18020.84990143 -.00000095  00000-0  14755-4 0  9992
2 00716  58.4938 198.4392 0016446 266.3974  93.5183 14.69412704885364
Epoch (UTC): 20 January 2018 20:23:51
Eccentricity: 0.0016446
inclination: 58.4938°
perigee height: 651 km
apogee height: 674 km
right ascension of ascending node: 198.4392°
argument of perigee: 266.3974°
revolutions per day: 14.69412704
mean anomaly at epoch: 93.5183°
orbit number at epoch: 88536

The dashed part of the orbit path shows where the satellite is in the earth's shadow,  

DLR